This is the latest recevied weather packets stored in our database for station/object KN6ZYR. If no packets are shown the sender has not sent any weather packets the latest 10 day(s).
| Time | Temp. | Humidity | Pressure | Rain* | Wind** | Luminosity | Snow |
|---|---|---|---|---|---|---|---|
| 1778016563 | 17.78° C | 46% | 1016.8 hPa | 0 mm | - | 755 W/m² | - |
| 1778016260 | 17.22° C | 46% | 1016.7 hPa | 0 mm | - | 767 W/m² | - |
| 1778015956 | 16.67° C | 44% | 1017 hPa | 0 mm | - | 759 W/m² | - |
| 1778015654 | 17.22° C | 45% | 1017.2 hPa | 0 mm | - | 547 W/m² | - |
| 1778015350 | 16.67° C | 45% | 1016.8 hPa | 0 mm | - | 811 W/m² | - |
| 1778015048 | 17.22° C | 45% | 1017.1 hPa | 0 mm | - | 654 W/m² | - |
| 1778014744 | 17.22° C | 44% | 1016.8 hPa | 0 mm | - | 283 W/m² | - |
| 1778014443 | 16.67° C | 49% | 1017.1 hPa | 0 mm | - | 866 W/m² | - |
| 1778014139 | 16.67° C | 43% | 1017.2 hPa | 0 mm | - | 880 W/m² | - |
| 1778013837 | 17.22° C | 46% | 1017.1 hPa | 0 mm | - | 862 W/m² | - |
| 1778013534 | 16.67° C | 46% | 1017.2 hPa | 0 mm | - | 892 W/m² | - |
| 1778013230 | 17.78° C | 45% | 1017.2 hPa | 0 mm | - | 731 W/m² | - |
| 1778012927 | 17.22° C | 52% | 1017 hPa | 0 mm | - | 931 W/m² | - |
| 1778012623 | 16.67° C | 57% | 1017 hPa | 0 mm | - | 862 W/m² | - |
| 1778012320 | 17.22° C | 46% | 1017.1 hPa | 0 mm | - | 847 W/m² | - |
| 1778012017 | 16.67° C | 56% | 1017.1 hPa | 0 mm | - | 858 W/m² | - |
| 1778011716 | 15.56° C | 51% | 1017.3 hPa | 0 mm | - | 874 W/m² | - |
| 1778011412 | 15.56° C | 51% | 1017.3 hPa | 0 mm | - | 892 W/m² | - |
| 1778011108 | 16.67° C | 54% | 1017.5 hPa | 0 mm | - | 750 W/m² | - |
| 1778010805 | 16.11° C | 52% | 1017.9 hPa | 0 mm | - | 945 W/m² | - |
| 1778010502 | 15.56° C | 50% | 1017.7 hPa | 0 mm | - | 904 W/m² | - |
| 1778010199 | 15° C | 54% | 1017.6 hPa | 0 mm | - | 900 W/m² | - |
| 1778009894 | 15.56° C | 55% | 1017.5 hPa | 0 mm | - | 899 W/m² | - |
| 1778009593 | 15° C | 55% | 1017.6 hPa | 0 mm | - | 947 W/m² | - |
| 1778009290 | 15.56° C | 57% | 1017.7 hPa | 0 mm | - | 903 W/m² | - |
* Rain latest hour (hover to see other rain measurements)
** Current wind speed in m/s (hover to see current wind gust speed)